RH
18 16 14 14 14 16 17 18 22 21 22 24 19 18 17 15 15 14 13 15 17 17 20 20 22 29 32 37 39 44 51 55 59 61 65 66 67 74 76 75 78 79 77 74 68 61 57 54 51 52 52 54 57 59 60 58 59 60 59 54 50 52 54 53 54 54 53 53 50 47 45 41 37 35 34 33 29 24 19 19 18 16 16 16 14 12 9 9 8 8 8 8 8 8 9 9 11
18 16 13 15 15 16 19 20 26 22 19 21 15 15 14 11 13 14 14 18 18 13 15 15 17 20 23 30 33 39 46 49 53 56 60 63 66 74 75 73 75 78 76 74 70 63 60 58 57 57 56 57 56 57 59 58 62 64 62 57 52 53 53 53 54 54 53 50 45 41 40 38 34 29 28 27 24 21 19 18 17 18 18 16 16 12 9 10 9 8 8 8 9 9 10 10 11
18 15 14 16 16 17 20 22 25 21 18 19 16 14 12 10 14 16 16 19 17 12 14 13 15 15 20 26 26 34 40 44 49 51 56 60 65 70 73 72 72 75 75 75 74 66 62 61 59 58 55 55 54 54 55 57 61 62 60 54 51 52 52 52 51 49 46 42 36 31 30 29 27 23 22 22 19 19 18 16 16 17 15 13 14 12 10 11 11 10 9 10 10 11 11 12 12
17 15 16 17 17 17 20 24 24 23 20 18 18 14 11 13 16 18 16 16 14 13 13 12 15 15 21 25 24 31 35 39 44 46 50 54 60 64 69 72 72 72 73 74 73 66 62 61 59 57 55 53 53 52 51 53 57 60 60 52 48 48 46 46 43 37 33 29 24 21 20 23 24 20 18 16 15 17 18 16 14 13 13 14 15 14 13 12 12 12 11 11 12 12 13 13 13
16 14 16 17 18 17 20 25 25 25 22 17 18 13 10 15 17 17 15 14 12 13 11 13 21 16 17 20 25 33 32 33 37 41 46 47 51 58 63 66 68 69 72 73 70 64 61 60 58 56 54 54 54 53 49 47 50 54 52 44 41 39 37 37 33 25 20 18 16 16 16 19 22 18 16 14 14 18 20 19 16 17 18 17 14 13 13 13 12 12 12 12 13 13 13 14 14
15 14 15 15 17 20 22 25 25 25 22 16 16 12 12 15 15 15 14 12 12 13 11 14 21 17 16 18 23 29 27 29 33 38 43 42 44 48 54 56 58 63 67 66 61 58 57 57 54 52 50 49 47 43 39 35 35 37 35 33 33 31 30 29 24 18 14 13 12 13 13 17 19 16 16 14 14 17 20 22 22 23 22 18 14 11 12 12 13 13 13 13 13 13 14 14 15
15 16 15 16 17 19 22 23 23 23 21 17 15 13 13 14 12 12 12 12 12 12 12 14 15 19 23 18 20 24 25 26 29 35 39 40 38 40 46 49 52 55 56 52 48 47 48 47 44 42 37 34 29 25 23 21 20 20 23 26 27 26 24 20 16 13 11 10 10 11 13 16 17 15 14 13 14 17 22 25 23 23 25 22 15 12 12 12 12 13 13 13 14 14 14 15 16
16 17 16 17 18 19 21 24 24 22 20 19 15 13 13 13 11 11 11 12 12 12 13 13 13 22 26 19 21 24 24 27 28 31 34 36 35 36 42 45 47 50 50 44 41 39 38 38 35 31 25 21 18 16 16 16 14 14 17 19 18 17 15 13 11 10 10 10 9 9 11 13 14 15 14 14 16 20 26 25 20 21 23 21 15 12 12 12 12 12 13 13 14 14 15 16 17
15 18 17 17 21 20 20 26 27 23 21 18 15 13 12 11 10 10 11 11 12 12 12 12 15 21 22 21 24 23 24 29 30 27 29 32 32 35 40 42 44 44 44 40 37 34 32 31 28 25 20 18 17 16 15 13 12 11 13 13 12 11 11 11 10 11 11 11 11 10 10 12 14 16 17 15 16 20 24 24 21 19 19 18 14 12 11 11 12 12 12 13 14 15 16 17 18
15 18 18 18 22 22 20 26 27 22 19 15 13 11 11 10 9 11 10 11 11 12 13 13 15 17 21 25 25 24 24 28 30 27 26 27 29 34 37 41 42 39 38 34 31 27 24 23 22 21 19 19 18 16 14 12 11 11 11 11 11 11 11 11 11 13 13 12 12 12 12 12 14 17 18 15 15 17 20 22 21 17 17 16 13 12 12 13 13 14 15 15 16 17 18 19 20
17 17 18 20 24 24 20 24 24 19 16 12 11 10 10 9 10 13 11 11 10 12 13 12 13 12 19 26 27 26 23 26 29 27 25 23 27 31 32 35 36 36 33 28 26 22 19 19 19 20 20 20 19 18 15 12 12 12 11 12 12 12 12 12 12 13 15 13 12 12 12 13 13 16 17 15 15 15 17 21 21 18 16 14 13 13 14 16 16 18 19 19 20 20 21 22 23
19 18 18 21 23 24 20 22 22 17 14 11 11 10 10 9 11 14 11 11 11 13 12 11 12 10 16 24 28 28 23 26 28 27 25 22 25 27 27 29 30 32 29 25 23 20 18 18 19 19 20 20 20 19 17 15 14 15 15 15 15 14 13 13 12 12 14 13 12 12 12 12 12 14 16 14 14 14 15 20 21 21 21 18 16 16 17 19 19 21 21 22 23 23 23 23 25
20 19 19 21 22 25 22 22 21 16 13 11 11 10 10 10 12 14 10 10 10 12 12 11 11 11 19 26 29 27 24 27 27 26 25 23 25 24 25 27 26 28 27 25 22 20 18 18 18 19 19 20 20 20 19 19 18 18 18 18 17 16 15 14 14 13 13 13 12 12 12 12 12 13 14 14 14 14 15 18 20 24 29 25 19 18 20 21 22 23 23 24 24 24 24 24 25
20 20 21 22 22 26 25 23 21 17 14 11 11 10 10 10 12 13 10 10 11 12 12 11 11 13 20 26 28 27 26 27 25 24 25 25 26 25 26 27 27 28 28 27 24 22 20 19 19 19 19 20 20 21 20 20 20 20 20 20 20 19 18 17 17 15 15 14 13 13 13 13 13 13 14 14 15 15 15 17 19 24 29 24 18 20 21 22 23 24 25 25 26 25 25 25 25
20 20 22 24 25 27 25 24 21 16 15 13 11 11 10 11 11 12 11 11 12 12 12 11 12 14 16 20 25 26 25 25 23 23 25 26 28 27 28 29 29 30 30 30 28 26 23 21 20 20 20 20 21 21 21 21 21 22 22 22 22 21 21 21 20 19 17 17 16 16 16 15 15 14 14 15 15 16 16 17 18 20 22 20 19 20 22 23 24 25 26 26 26 26 26 26 26
19 21 23 25 26 25 24 23 18 15 16 14 12 11 11 11 11 11 11 12 12 12 12 12 13 15 18 19 21 22 23 21 20 21 24 27 28 29 29 29 31 31 31 32 31 30 28 25 23 22 21 20 21 21 22 22 22 23 23 23 23 23 24 23 23 22 20 20 19 19 19 18 18 17 16 15 15 16 16 16 17 17 18 18 18 20 22 24 24 26 26 26 27 26 27 27 27
19 22 24 24 23 23 22 19 16 15 16 15 13 11 11 11 11 11 11 11 11 12 13 13 13 15 19 22 20 19 20 19 18 20 23 26 29 30 30 30 30 31 31 31 32 31 31 29 26 25 23 21 21 21 22 22 23 23 23 23 24 24 24 25 24 24 24 23 22 22 22 22 20 20 19 17 16 15 15 15 15 15 16 16 17 18 21 23 24 25 25 26 27 27 27 28 28
19 21 23 22 21 20 19 17 15 14 16 15 13 11 11 11 11 11 10 11 11 11 13 14 14 14 16 23 23 19 17 17 17 19 21 25 29 30 29 30 31 31 31 31 32 31 31 31 29 28 26 23 22 21 21 22 22 23 24 24 24 25 25 25 26 26 26 26 26 24 23 24 23 23 22 20 19 17 16 16 15 15 15 16 16 17 19 22 23 24 25 26 26 27 28 28 29
18 20 21 21 20 19 16 14 14 14 15 14 12 11 10 11 10 11 10 10 10 11 13 13 15 14 15 22 24 20 18 17 17 18 19 22 26 29 29 30 31 31 31 31 31 31 31 32 31 30 29 26 23 22 22 22 23 23 24 25 25 26 26 26 27 27 27 28 28 27 26 26 25 24 24 23 22 21 19 18 17 17 16 16 16 16 18 21 22 24 24 25 26 26 27 28 28
17 19 21 22 20 18 15 13 13 13 14 13 11 11 10 11 10 11 10 10 10 10 11 12 15 15 15 19 20 20 20 19 18 18 18 20 23 27 28 28 29 29 29 29 30 31 31 31 31 31 30 29 25 23 23 23 24 24 24 25 26 26 27 27 27 28 28 28 29 29 30 29 27 26 25 25 24 23 22 21 20 19 18 17 16 16 17 19 21 23 23 24 26 26 26 27 28
17 19 22 23 21 19 16 14 14 13 13 12 11 11 10 10 10 10 9 9 9 8 10 10 12 14 12 15 17 18 20 20 19 19 19 19 22 27 28 26 26 29 29 28 29 30 31 30 31 31 30 29 28 25 24 24 24 24 24 25 25 26 27 27 27 28 28 29 29 29 30 30 29 29 27 26 26 25 25 24 22 21 21 20 18 17 16 17 19 21 23 24 25 25 26 26 27
19 19 22 23 22 20 17 15 14 12 12 11 11 11 10 10 9 9 8 9 10 8 9 8 10 11 10 12 14 16 18 19 20 21 21 20 22 26 29 28 28 29 30 28 27 28 29 30 31 31 30 30 29 27 26 25 25 25 26 26 26 26 26 27 27 28 29 29 29 30 30 30 30 31 30 29 28 27 27 26 25 24 23 22 22 20 19 18 19 20 22 23 24 24 25 26 28
20 20 20 21 20 20 18 15 14 13 12 12 11 11 10 10 9 8 8 10 12 10 9 8 9 10 9 9 11 13 15 16 18 19 20 21 22 25 28 29 29 29 29 27 27 26 28 30 31 31 30 30 30 30 29 28 27 28 30 29 27 28 27 27 27 28 29 30 30 30 30 31 31 31 32 32 31 30 29 28 27 27 26 25 24 23 22 22 21 21 21 22 22 23 24 25 26
20 20 20 20 19 19 18 15 14 13 12 12 11 10 10 9 9 9 9 10 10 10 9 8 10 11 10 9 9 10 11 12 15 16 19 21 23 25 27 28 28 28 29 28 27 26 25 28 31 31 30 30 30 31 31 31 29 30 33 31 28 29 30 29 28 28 28 30 30 31 31 32 32 32 33 33 33 33 33 32 30 30 29 27 26 25 24 24 24 23 23 23 23 23 23 23 24
20 20 19 20 20 19 18 16 15 14 13 12 11 10 9 9 9 9 9 9 8 8 8 8 11 13 11 9 9 10 10 10 13 15 18 23 26 27 28 28 29 29 29 29 28 26 24 25 29 31 30 29 29 30 31 31 30 30 31 30 27 28 30 31 31 29 29 29 30 31 32 32 32 33 33 34 34 34 34 34 33 33 32 30 29 27 26 25 25 24 24 25 25 25 24 24 24
19 20 19 19 19 19 18 17 16 14 13 12 11 10 10 9 9 9 9 9 8 8 8 7 10 14 14 11 9 9 11 11 12 13 15 22 27 29 28 28 29 29 29 28 27 26 25 24 26 28 28 29 28 29 30 30 29 28 28 27 26 26 27 30 32 31 30 29 29 30 31 32 33 33 33 34 34 33 33 34 34 34 34 33 31 30 28 27 26 25 25 25 25 25 25 26 26
18 19 19 18 19 19 18 17 16 15 13 12 11 10 10 9 9 9 9 8 8 8 8 8 8 11 15 15 13 11 11 11 11 13 15 19 26 29 30 29 29 30 29 28 27 26 27 25 24 25 26 28 28 27 28 28 27 26 26 25 24 24 25 27 30 32 31 29 27 27 29 31 32 32 33 33 33 33 33 33 34 34 34 33 33 32 31 30 28 27 26 26 26 26 26 26 26
19 19 19 19 19 19 19 18 17 15 14 13 11 10 10 10 10 9 9 8 8 8 8 8 9 9 12 15 16 15 14 14 14 15 16 16 20 23 26 26 26 28 29 29 26 25 26 25 22 21 24 27 27 26 26 26 27 25 24 23 23 22 23 24 26 29 30 29 28 25 25 28 30 31 32 33 33 33 33 33 33 33 33 32 33 33 32 32 31 30 29 28 28 28 27 27 27
20 19 20 20 19 19 19 18 17 16 15 13 12 12 11 10 10 9 9 9 8 9 9 9 9 10 11 13 15 16 16 18 18 16 14 12 13 15 17 18 18 20 24 26 24 22 23 24 20 17 20 24 24 23 24 24 25 25 24 24 23 23 22 21 23 25 26 27 28 26 23 24 27 30 31 32 33 33 33 32 32 32 32 31 31 31 32 33 33 33 32 31 30 30 30 30 30
21 20 20 20 20 20 20 19 18 16 15 13 12 12 12 9 9 9 9 9 8 9 10 10 9 10 12 13 14 15 15 18 18 13 11 11 11 12 13 15 14 14 17 20 21 18 18 20 18 16 16 20 20 20 21 21 23 23 24 24 23 22 21 20 20 21 23 23 25 26 24 22 24 27 30 31 31 33 33 32 31 31 31 32 32 32 32 33 33 33 33 33 33 32 32 32 32
21 21 21 21 22 21 21 20 18 17 15 13 12 13 12 10 10 10 9 9 9 9 9 10 10 10 12 14 15 15 13 13 12 11 10 10 10 10 11 13 13 12 13 15 15 15 15 16 16 15 14 15 16 17 18 19 20 21 22 23 23 22 20 19 19 19 20 21 22 24 23 22 22 25 28 29 30 32 33 32 31 32 33 33 33 32 32 33 33 33 33 34 34 33 32 32 32
22 23 23 22 22 22 21 20 18 17 15 13 12 13 12 11 11 11 10 9 9 9 8 8 9 10 11 12 13 13 12 10 9 9 9 9 9 9 9 10 10 11 11 11 12 13 13 14 14 13 13 13 14 14 15 16 18 18 19 21 21 20 19 19 17 17 17 18 19 20 21 21 22 24 26 27 29 32 32 32 31 32 33 34 33 33 33 33 33 33 33 33 33 33 32 32 31
23 24 24 23 22 23 22 20 19 16 15 14 13 13 11 11 11 11 10 9 9 8 8 7 8 9 10 10 10 10 11 10 9 8 8 8 8 8 8 9 9 10 10 10 11 12 12 13 13 13 13 13 13 13 14 14 15 16 17 18 18 18 19 18 17 17 17 16 17 17 18 18 19 21 24 25 27 30 31 32 32 33 34 34 34 34 34 34 34 34 34 34 33 33 32 32 32
24 24 25 23 21 22 22 20 18 16 15 14 13 13 11 11 11 11 10 9 9 8 8 7 6 7 8 9 9 9 10 10 8 8 8 8 8 8 8 8 9 9 9 10 10 11 11 12 12 12 13 13 14 14 14 14 14 15 15 16 17 17 18 18 17 17 16 15 15 15 16 16 16 18 21 23 24 26 28 30 32 34 34 35 35 35 34 34 35 35 34 33 33 33 32 32 33
24 24 24 24 22 21 21 19 17 16 15 14 14 13 11 11 11 11 9 8 8 7 7 7 6 6 7 7 8 8 9 9 8 7 8 8 8 8 8 8 9 9 9 9 10 10 11 11 11 12 12 13 13 14 14 14 14 14 15 15 16 17 17 17 17 16 15 15 15 15 15 15 15 16 18 19 21 23 26 28 32 34 35 35 35 35 34 34 34 34 33 32 33 33 33 34 34
23 23 23 23 22 21 20 19 17 15 15 14 13 12 11 11 11 11 10 8 8 8 7 7 6 7 6 7 7 8 8 8 8 7 7 8 8 8 8 8 9 9 9 9 10 10 10 11 11 11 11 12 13 13 14 14 14 14 14 14 14 15 15 15 15 16 16 15 14 15 15 15 15 16 17 18 19 21 22 25 28 31 34 34 35 35 33 32 33 33 34 34 34 34 35 36 35
22 22 22 23 21 20 19 18 17 15 15 14 12 12 11 10 10 10 9 9 8 7 7 7 7 7 7 7 7 8 8 8 7 7 8 8 8 8 8 8 8 9 9 10 10 10 10 10 10 11 11 11 12 12 13 13 13 13 13 13 13 13 14 14 14 15 16 15 15 15 15 16 16 17 17 18 19 19 20 26 28 27 29 30 33 34 32 32 33 34 34 34 35 36 36 36 36
22 22 23 23 22 20 19 17 17 16 15 15 13 12 11 10 9 9 9 9 8 8 7 7 7 7 7 7 7 7 7 8 8 8 8 8 8 8 8 8 8 9 9 9 9 9 10 10 10 10 10 11 11 11 12 12 12 12 13 13 13 14 14 14 14 15 15 15 15 15 15 17 18 18 18 20 24 23 23 28 30 27 27 28 30 33 34 34 35 36 36 36 36 36 36 35 36
22 22 22 24 23 21 20 18 17 16 15 15 14 13 11 10 9 8 8 8 7 7 7 7 7 6 7 6 6 7 7 8 8 8 8 8 8 7 7 8 8 8 8 8 9 9 9 9 10 10 10 10 10 11 12 12 12 13 13 14 14 15 15 15 15 15 15 14 14 14 15 16 17 17 17 21 25 25 25 27 27 28 29 29 31 33 35 37 37 36 36 36 35 35 35 34 35
22 22 21 23 22 20 19 18 17 16 15 15 15 14 12 10 9 8 7 7 6 7 7 7 7 6 7 6 6 7 7 8 8 8 8 8 8 8 7 7 7 8 8 8 8 9 9 9 9 9 9 10 10 11 11 12 14 15 15 16 17 16 17 17 16 16 15 14 14 14 14 14 15 15 17 20 22 24 26 26 28 31 31 31 33 34 35 35 36 36 35 34 33 34 33 33 34
23 23 21 22 21 19 19 17 17 16 16 16 14 13 13 10 8 8 7 7 7 7 7 7 7 7 7 7 7 7 8 8 8 8 8 7 7 7 7 7 7 7 7 7 8 8 8 9 9 9 9 10 10 10 11 13 14 15 15 17 18 17 16 16 15 15 15 15 14 13 14 14 14 16 18 22 23 25 27 28 32 35 35 35 34 35 36 35 35 34 33 33 33 33 33 33 34
22 23 22 20 19 20 19 18 17 16 16 16 12 14 16 12 8 8 7 8 8 8 8 8 7 7 7 7 8 7 8 8 7 8 8 7 7 7 7 7 7 8 8 8 8 8 8 8 9 9 9 10 10 10 10 12 13 13 13 14 15 14 14 14 14 15 16 16 15 14 15 15 16 18 20 25 28 29 30 32 35 35 36 35 34 33 36 37 34 32 32 34 34 34 34 34 35
22 24 23 20 19 21 19 18 17 17 17 16 13 14 16 14 10 9 8 8 8 8 8 7 7 7 7 7 7 7 7 7 7 7 7 7 7 7 7 7 7 7 8 8 8 8 8 9 9 9 9 9 10 10 10 11 11 12 12 13 13 13 13 14 15 16 17 17 17 15 16 17 19 20 21 26 31 32 33 34 35 36 35 35 34 34 35 34 33 32 33 34 33 33 34 33 33
23 26 25 21 20 22 20 18 18 19 19 17 15 14 14 15 13 10 9 9 8 8 8 7 7 8 8 8 8 8 8 7 7 7 6 7 7 6 7 7 7 7 7 8 8 8 8 9 9 9 9 9 9 10 10 10 11 11 12 12 13 13 13 14 16 18 19 19 18 17 17 19 21 22 23 28 32 33 33 34 36 37 36 35 35 35 35 34 34 34 34 33 33 33 34 33 33
26 30 27 21 19 21 20 19 19 20 20 20 18 16 16 17 13 9 10 9 9 8 8 9 9 9 10 10 10 10 9 8 7 7 7 6 6 6 6 6 6 6 7 7 7 8 8 8 9 9 9 9 9 10 10 10 11 11 11 12 12 13 13 14 16 19 19 18 17 17 17 18 21 23 24 25 28 29 29 29 31 32 32 32 32 33 35 35 34 34 34 33 34 34 34 35 35
27 30 26 22 21 20 19 21 21 19 21 23 21 17 17 19 14 9 9 9 8 8 8 10 10 10 11 11 12 11 10 9 8 8 8 7 6 6 6 6 6 6 6 7 7 7 8 8 8 9 9 9 9 10 10 10 10 11 11 11 12 13 14 15 16 16 16 15 15 16 17 17 19 21 22 22 23 23 24 24 25 25 25 27 29 31 32 33 32 32 33 33 33 33 34 35 35
27 27 25 23 23 20 20 23 22 21 25 25 23 19 16 18 17 11 9 9 8 7 8 11 11 11 12 13 13 13 12 10 9 9 8 8 8 7 7 6 6 7 6 7 7 7 7 8 8 8 8 8 9 9 9 10 10 11 11 12 12 13 14 14 15 15 15 15 16 17 17 18 19 19 19 20 19 19 19 20 20 20 20 22 24 26 28 30 31 32 32 32 33 33 34 35 36
28 26 24 24 24 22 23 24 23 26 29 24 22 22 18 19 17 10 9 9 8 8 9 11 12 12 12 13 13 14 13 12 11 10 9 9 9 8 8 7 7 7 7 7 7 7 8 8 8 8 8 9 9 9 9 10 10 11 11 12 12 13 14 14 15 15 15 16 17 17 18 18 18 18 18 18 17 17 17 17 17 17 18 19 20 21 23 25 29 31 33 34 34 35 35 36 36
28 26 23 26 30 28 28 30 27 28 28 22 21 22 20 19 14 8 9 9 9 10 9 10 12 12 13 13 14 14 14 14 13 13 12 11 11 10 9 8 8 8 8 8 8 8 8 8 8 9 8 9 9 10 10 10 11 11 12 12 13 14 14 15 15 16 16 17 17 17 17 17 17 17 17 16 16 16 16 16 17 17 17 17 17 18 18 20 23 26 29 31 33 34 36 37 38
28 25 23 28 33 32 32 32 29 27 26 22 22 22 21 18 11 9 9 8 10 11 10 10 11 12 13 14 14 15 15 15 15 15 14 13 12 11 10 10 9 9 9 9 9 9 9 9 9 10 10 10 11 11 12 12 12 12 12 13 13 14 15 16 16 16 17 17 17 17 16 16 16 16 16 16 16 16 17 17 17 17 17 17 17 18 18 19 21 23 24 27 29 31 33 35 36
27 26 23 26 28 29 30 30 29 30 27 22 21 21 19 16 12 10 9 8 10 11 10 11 12 13 14 14 14 15 16 16 17 16 14 13 12 11 11 10 10 10 10 10 10 10 11 11 11 11 11 12 12 12 12 12 13 13 13 14 15 15 16 16 16 16 17 17 17 17 16 17 17 17 17 17 17 17 18 17 17 17 17 17 18 19 20 21 22 23 24 25 27 29 31 32 33
29 28 26 24 25 27 28 28 28 29 29 26 24 21 18 14 13 12 10 9 10 10 11 11 12 13 13 14 15 15 16 17 17 16 14 13 13 12 12 11 11 11 11 11 11 12 12 12 12 12 12 12 12 13 13 13 14 14 15 15 16 16 16 17 17 17 17 17 17 17 17 17 17 18 18 18 18 18 17 17 17 17 18 18 19 20 21 22 23 24 25 26 27 29 30 32 34
29 30 28 25 26 27 28 27 25 24 27 27 23 19 16 13 12 12 10 10 10 9 11 11 12 13 13 14 15 15 16 16 16 15 14 13 13 13 12 12 12 12 12 12 12 12 12 12 13 12 12 13 13 13 14 14 15 16 16 16 17 17 17 17 17 17 17 17 18 18 18 18 18 18 18 18 17 17 17 17 17 18 19 20 21 22 23 24 25 26 27 28 29 29 30 32 34
29 31 29 25 25 26 24 25 26 25 25 24 20 18 16 13 13 13 11 10 10 9 10 11 13 13 14 15 15 15 16 15 15 14 13 14 13 13 13 12 12 12 12 13 13 13 13 13 13 13 13 13 14 14 15 15 16 17 17 17 18 18 17 18 18 18 18 18 18 19 19 19 18 18 17 17 17 17 18 18 19 20 21 22 23 24 25 26 27 28 29 30 31 31 32 34 35
29 29 27 25 26 26 23 23 28 29 25 22 20 18 16 15 14 14 12 11 11 10 10 12 14 14 14 15 15 15 15 14 14 14 13 14 13 13 13 13 13 13 13 13 13 13 13 13 14 14 14 15 15 16 16 17 17 17 18 18 18 18 17 18 18 18 19 19 19 19 19 18 17 17 17 18 19 19 19 20 21 22 22 23 24 25 26 27 28 30 31 32 33 34 35 36 38
28 27 27 26 26 26 24 22 25 28 26 23 22 20 19 18 13 12 12 11 11 10 10 12 14 14 15 15 15 15 15 14 14 14 14 14 14 14 14 14 14 14 14 14 14 14 15 15 15 15 16 16 16 17 17 17 17 17 17 17 17 18 18 18 19 19 19 19 18 18 17 17 17 18 19 20 21 21 21 22 22 23 23 24 24 25 26 27 29 30 32 33 35 36 37 38 40
29 28 27 26 25 24 25 23 21 24 25 24 22 22 22 17 12 11 11 10 10 10 11 13 14 14 15 16 16 15 15 14 14 14 15 15 15 16 16 16 16 15 15 15 15 15 16 16 17 17 17 17 17 17 17 17 17 17 17 18 18 18 18 19 19 19 19 19 18 18 18 18 19 19 21 22 22 22 22 22 22 22 22 22 23 23 25 26 27 29 31 32 34 35 37 38 39
31 29 27 26 26 25 26 27 24 21 21 23 23 26 25 16 12 13 11 10 11 9 11 13 13 13 15 16 16 15 15 15 15 15 15 16 16 17 17 17 17 17 16 16 16 16 17 17 17 17 17 17 17 17 17 17 18 18 18 18 18 19 19 19 19 19 19 19 19 19 19 20 21 21 22 22 22 22 21 21 21 21 22 22 22 22 23 24 24 26 28 30 31 32 33 34 35